Wind_Speed
56 58 59 60 60 59 57 49 40 34 37 37 37 37 40 44 47 49 51 51 52 53 51 48 47 46 43 41 36 31 30 29 21 20 27 29 29 29 31 30 26 24 25
59 61 59 60 60 59 54 42 37 38 38 37 37 40 43 47 49 51 51 50 50 50 46 44 43 42 41 39 37 33 30 28 21 16 21 23 25 27 26 23 19 22 25
65 61 59 59 59 56 46 40 38 38 38 38 40 44 47 50 51 51 50 48 47 46 42 41 41 38 36 34 35 32 28 24 19 16 18 20 21 19 16 16 19 21 22
60 57 57 57 56 47 39 38 38 39 39 41 44 48 51 51 51 49 47 46 45 42 39 38 38 34 31 29 28 26 23 20 17 15 17 19 18 14 12 15 18 17 14
54 55 55 55 47 39 37 37 38 40 42 45 48 52 53 52 49 48 45 45 43 38 36 35 34 30 27 24 23 21 19 16 15 14 15 18 18 15 13 12 13 12 11
53 54 53 45 38 36 36 38 41 43 45 50 53 54 53 49 46 45 44 42 40 35 33 32 30 29 24 22 19 18 16 15 15 13 14 16 17 16 14 13 11 11 9
53 52 45 37 36 36 38 41 43 46 48 52 54 53 49 47 45 42 41 41 37 34 31 28 26 26 21 19 16 15 13 14 15 15 11 9 12 13 13 11 7 6 5
49 43 36 35 36 38 41 43 46 49 51 52 51 50 48 46 43 41 41 39 35 30 28 26 23 24 19 16 15 13 10 11 10 9 10 10 10 9 8 7 7 6 4
42 35 34 36 37 40 43 45 48 50 50 51 50 50 47 42 40 40 37 33 29 25 24 24 22 23 16 14 14 12 9 9 9 9 10 12 13 9 8 9 7 5 1
35 33 35 37 40 42 44 46 48 49 51 52 51 49 44 39 39 36 28 25 22 21 21 21 19 18 14 12 13 12 10 9 8 10 9 8 10 12 12 9 7 6 3
32 34 35 38 41 42 44 46 47 50 52 50 46 44 42 41 37 29 25 21 19 19 18 17 14 13 10 11 14 14 12 10 9 10 10 10 11 15 15 11 9 8 5
32 34 36 39 40 42 43 45 48 50 49 45 43 43 40 36 29 24 23 21 19 16 13 12 9 6 7 11 14 13 10 8 9 12 13 12 14 19 20 16 12 9 7
32 34 37 38 40 42 43 45 47 47 44 42 41 37 31 27 25 24 23 20 16 13 11 9 6 4 10 13 13 10 9 13 16 17 17 16 18 20 20 16 12 10 11
32 35 37 38 40 42 43 44 45 43 41 39 35 29 24 23 25 23 19 17 14 9 4 3 2 8 13 15 15 16 17 19 20 18 17 16 15 15 17 15 12 11 14
33 35 37 39 42 43 42 43 43 40 37 34 29 24 21 23 23 19 15 12 8 4 5 3 3 10 13 19 20 20 20 20 20 17 14 13 14 15 17 15 13 15 19
33 35 36 40 42 42 41 42 41 37 34 31 28 25 23 22 22 20 13 8 6 9 9 8 8 9 14 21 22 21 22 21 18 16 14 14 15 18 18 15 14 20 24
33 35 37 41 41 40 40 41 38 33 32 30 27 23 20 18 18 17 13 10 9 10 12 12 11 9 15 21 24 23 23 21 16 15 14 16 17 15 15 14 17 23 28
33 35 37 39 39 39 39 38 35 32 32 30 26 21 18 16 12 14 12 9 8 9 10 13 13 12 15 20 24 25 24 20 18 16 12 13 14 14 14 13 19 25 25
33 34 36 37 38 38 36 36 34 32 31 29 26 22 20 13 8 12 12 9 7 7 8 11 15 15 16 19 22 24 23 20 17 15 11 13 13 14 14 15 19 24 25
32 33 35 36 36 35 34 35 34 32 30 27 24 21 20 15 8 10 14 13 9 8 8 9 14 16 17 18 21 21 19 20 19 17 15 15 14 14 14 16 19 23 25
31 32 33 33 33 34 33 34 34 32 29 27 24 22 20 18 13 9 11 13 10 8 10 10 13 15 16 17 19 20 21 24 23 18 15 15 15 16 17 17 17 20 22
30 31 31 31 33 34 34 33 32 31 30 28 26 24 21 17 15 12 12 13 12 11 11 11 12 15 16 16 16 19 21 22 19 16 16 16 17 18 17 15 15 17 20
29 30 31 32 33 33 33 32 31 29 29 28 26 24 21 18 15 12 12 12 11 10 10 9 10 13 15 14 14 15 17 18 17 16 16 17 18 18 16 13 12 13 15
29 30 32 34 34 34 32 29 27 27 27 27 26 25 22 20 19 17 17 16 14 11 9 8 7 9 13 13 14 15 16 15 16 16 16 16 16 17 16 14 11 10 11
31 32 34 36 37 35 31 28 25 24 24 25 26 25 23 20 17 17 19 20 20 16 11 10 8 8 10 12 13 13 13 13 13 14 15 16 17 18 18 16 13 11 10
32 35 38 39 38 35 31 28 23 21 21 22 23 24 24 21 16 12 11 14 17 19 18 16 13 11 11 12 14 14 13 13 13 13 14 16 17 18 17 16 14 13 13
Wind_Direction
312 313 312 311 311 310 309 307 312 308 303 303 305 306 309 311 312 310 309 310 312 311 307 299 292 286 281 281 284 291 299 298 288 255 246 252 257 265 266 270 268 265 266
312 313 312 311 311 311 307 299 300 301 302 304 306 309 312 313 313 310 310 311 312 311 306 301 298 288 280 275 275 282 292 295 290 255 243 247 252 261 267 271 262 265 263
310 311 311 311 311 310 303 295 298 301 302 306 308 311 312 313 312 310 309 310 312 310 304 304 303 293 280 275 273 277 283 288 281 257 252 251 258 270 268 261 259 261 263
309 311 312 311 310 308 302 299 301 302 305 307 309 311 312 313 311 308 307 307 309 308 305 305 305 301 285 277 273 272 273 278 271 257 254 250 260 264 260 256 263 263 272
311 313 313 311 309 306 304 303 304 305 307 310 311 311 313 312 309 309 308 306 306 307 307 305 304 302 289 280 272 267 264 265 262 258 249 248 254 255 251 260 273 262 277
313 313 313 310 308 307 308 307 307 309 312 313 313 314 313 311 310 309 308 304 301 305 306 306 301 302 292 285 276 261 252 254 256 256 255 250 252 253 250 259 263 254 273
313 313 311 307 308 310 310 310 312 314 315 314 314 315 313 311 310 308 305 301 297 298 301 305 300 302 292 283 273 259 245 250 255 260 245 250 253 247 248 250 247 238 238
313 311 308 308 311 313 313 314 317 318 318 317 317 316 315 313 311 309 306 303 298 292 296 302 298 303 288 271 262 247 236 244 242 230 237 256 250 253 240 206 182 192 212
311 308 308 311 315 315 316 319 321 320 320 320 320 317 316 315 313 313 311 307 299 291 294 299 294 296 280 259 246 225 219 219 227 226 250 256 241 227 181 163 164 179 160
307 307 310 314 314 317 321 323 323 324 323 323 322 321 322 322 320 319 318 309 298 292 295 298 291 287 268 245 225 200 197 200 223 237 244 229 207 187 163 157 168 158 118
305 308 313 315 317 322 325 326 327 327 327 328 328 328 328 326 324 323 323 317 304 299 299 301 293 280 245 223 199 187 194 217 237 229 214 197 187 180 169 164 161 145 124
307 313 317 319 324 327 329 331 331 331 332 332 332 330 329 329 328 327 327 321 312 307 300 302 295 253 198 185 179 182 200 224 197 171 161 155 162 166 164 163 146 128 128
312 317 320 325 329 332 333 333 333 334 333 332 332 332 333 336 334 331 330 325 317 304 294 291 287 188 157 158 160 162 164 161 158 153 145 138 142 155 162 159 143 139 140
318 321 326 332 334 335 334 334 336 336 335 336 337 339 342 344 340 336 334 330 325 315 283 266 261 155 150 153 152 141 136 140 141 143 146 146 142 152 164 160 151 151 149
322 326 333 337 337 336 336 336 338 338 340 342 344 345 345 348 349 346 340 336 346 84 97 44 117 150 154 156 150 138 135 134 134 138 143 151 159 162 165 160 151 152 150
329 334 339 339 339 339 339 340 341 341 344 347 346 346 346 352 358 358 360 13 70 96 74 56 91 131 158 159 154 148 144 138 134 131 130 137 143 153 159 152 150 154 152
337 340 342 342 343 344 344 344 344 345 349 351 349 345 347 355 4 14 31 47 76 96 84 69 82 108 153 162 160 154 150 144 144 140 132 134 132 141 150 145 150 156 156
342 345 345 346 348 348 347 349 351 353 354 355 358 359 0 359 9 22 35 53 72 99 98 75 80 101 141 159 167 165 159 157 157 157 149 151 146 143 140 142 153 158 162
346 350 351 352 352 351 353 356 358 359 359 0 6 11 11 11 29 40 39 40 57 97 121 99 89 95 124 150 164 170 174 178 179 183 173 162 162 151 139 140 152 159 161
352 354 355 355 355 356 359 2 4 4 6 7 11 14 20 31 50 52 47 39 47 91 124 135 106 95 110 135 156 170 180 181 178 174 164 156 157 154 143 139 149 159 163
356 357 357 358 360 2 4 6 8 9 11 14 18 19 27 38 50 52 41 35 43 94 113 134 127 109 108 125 145 155 161 164 169 174 173 165 159 155 145 138 143 157 165
359 356 357 359 3 6 7 8 10 13 15 18 22 25 28 36 45 52 48 42 51 83 113 130 138 125 114 115 137 157 167 172 175 174 172 171 166 159 153 146 140 152 164
1 357 358 2 3 3 5 9 12 15 19 21 24 27 29 34 41 47 49 50 59 70 89 121 147 147 135 127 130 149 165 172 177 177 175 174 173 169 163 160 156 151 160
3 3 2 3 3 2 3 7 12 17 22 26 29 31 34 43 52 56 62 62 61 66 77 92 121 153 156 150 142 141 145 159 172 179 180 174 174 177 181 182 179 168 159
6 8 7 5 4 4 5 9 15 20 26 31 34 35 37 44 54 57 59 57 51 54 66 78 94 127 149 151 150 147 142 146 156 164 171 177 177 177 181 186 190 190 179
11 10 9 6 6 7 10 15 21 26 31 36 37 37 36 37 43 45 42 44 43 46 62 71 82 103 123 137 141 141 140 137 143 153 160 168 173 175 175 177 184 189 189
Height
5747 5741 5733 5725 5716 5706 5698 5689 5680 5675 5671 5665 5659 5653 5648 5642 5635 5627 5619 5611 5603 5594 5587 5581 5576 5573 5570 5568 5566 5563 5560 5555 5553 5554 5553 5553 5554 5554 5554 5556 5557 5558 5557
5737 5730 5722 5713 5704 5695 5686 5679 5672 5667 5662 5657 5651 5645 5638 5631 5624 5615 5606 5598 5590 5581 5574 5569 5564 5559 5557 5556 5555 5554 5551 5548 5546 5546 5545 5547 5548 5548 5549 5549 5550 5550 5548
5727 5718 5710 5702 5693 5685 5677 5670 5664 5659 5653 5647 5641 5635 5627 5619 5611 5602 5594 5585 5577 5570 5563 5558 5552 5546 5544 5543 5543 5543 5543 5541 5540 5540 5540 5541 5542 5543 5544 5543 5543 5543 5542
5716 5708 5699 5692 5683 5675 5668 5661 5656 5650 5644 5638 5631 5624 5616 5608 5598 5588 5580 5572 5565 5559 5553 5547 5542 5536 5533 5533 5533 5534 5535 5535 5534 5535 5535 5536 5538 5539 5539 5538 5538 5537 5536
5705 5697 5688 5681 5673 5665 5659 5653 5647 5642 5635 5627 5620 5612 5603 5594 5583 5574 5567 5559 5553 5548 5543 5537 5532 5528 5525 5524 5525 5526 5527 5528 5529 5529 5531 5532 5533 5534 5535 5535 5533 5533 5532
5694 5686 5678 5671 5664 5657 5651 5645 5639 5632 5624 5615 5606 5598 5589 5580 5571 5562 5555 5549 5542 5538 5533 5528 5524 5521 5518 5518 5518 5519 5521 5522 5524 5526 5527 5527 5528 5529 5531 5530 5529 5529 5529
5683 5676 5669 5663 5657 5650 5643 5637 5630 5621 5613 5604 5594 5585 5576 5567 5559 5552 5544 5537 5531 5528 5523 5520 5516 5513 5512 5512 5512 5513 5515 5517 5519 5521 5522 5523 5524 5525 5526 5526 5526 5526 5527
5675 5668 5662 5656 5650 5643 5635 5628 5619 5610 5601 5591 5582 5573 5564 5555 5547 5540 5531 5525 5521 5517 5514 5512 5509 5506 5505 5506 5506 5508 5510 5512 5514 5516 5519 5520 5521 5522 5523 5523 5523 5525 5526
5668 5662 5656 5649 5643 5636 5627 5618 5609 5599 5589 5580 5570 5561 5552 5543 5535 5528 5520 5514 5510 5507 5506 5504 5502 5500 5499 5500 5501 5504 5506 5509 5511 5513 5515 5516 5518 5520 5521 5522 5524 5525 5525
5663 5657 5650 5643 5636 5628 5619 5609 5600 5589 5579 5569 5559 5548 5540 5532 5525 5518 5511 5506 5502 5500 5499 5497 5495 5495 5494 5495 5497 5500 5504 5507 5509 5510 5512 5513 5515 5518 5520 5523 5525 5526 5526
5657 5652 5644 5638 5630 5620 5611 5601 5591 5580 5569 5559 5548 5538 5530 5522 5515 5509 5504 5499 5496 5494 5492 5491 5489 5489 5489 5491 5494 5498 5502 5504 5506 5508 5510 5512 5513 5516 5520 5523 5526 5527 5527
5653 5645 5639 5632 5622 5613 5603 5593 5583 5572 5560 5550 5541 5531 5523 5515 5508 5503 5499 5495 5491 5489 5488 5486 5485 5485 5486 5489 5493 5497 5500 5501 5503 5506 5509 5511 5513 5515 5520 5523 5526 5528 5529
5647 5640 5633 5625 5615 5606 5597 5587 5577 5566 5555 5545 5536 5527 5519 5511 5505 5499 5495 5490 5487 5485 5484 5484 5483 5483 5485 5489 5493 5496 5498 5500 5503 5507 5510 5512 5514 5517 5521 5525 5528 5530 5531
5642 5635 5627 5618 5609 5601 5592 5582 5572 5561 5551 5540 5531 5523 5516 5510 5502 5497 5492 5488 5484 5482 5482 5483 5483 5483 5486 5489 5494 5496 5500 5503 5506 5509 5512 5515 5517 5521 5525 5527 5530 5532 5534
5637 5630 5621 5612 5604 5595 5586 5577 5567 5556 5547 5537 5529 5521 5515 5508 5502 5496 5491 5487 5484 5483 5484 5484 5484 5485 5487 5491 5495 5499 5502 5506 5509 5512 5515 5517 5520 5523 5526 5529 5531 5534 5538
5632 5624 5617 5608 5599 5590 5581 5572 5561 5551 5542 5534 5525 5519 5512 5507 5500 5495 5490 5488 5487 5487 5487 5486 5486 5487 5488 5492 5497 5501 5506 5510 5513 5516 5518 5520 5523 5526 5528 5531 5533 5537 5541
5628 5620 5613 5604 5595 5586 5577 5567 5557 5548 5539 5531 5523 5516 5511 5506 5501 5497 5493 5491 5491 5491 5491 5489 5489 5489 5490 5494 5499 5504 5509 5513 5516 5519 5521 5524 5526 5529 5531 5534 5536 5540 5545
5625 5618 5610 5601 5593 5583 5575 5565 5555 5546 5537 5529 5521 5515 5510 5506 5503 5500 5497 5495 5495 5495 5494 5492 5492 5492 5493 5496 5501 5506 5510 5515 5518 5521 5525 5527 5529 5532 5534 5537 5539 5543 5548
5622 5616 5608 5600 5591 5582 5573 5564 5554 5545 5537 5528 5521 5515 5511 5506 5505 5503 5500 5498 5497 5497 5496 5496 5496 5496 5496 5499 5503 5507 5511 5516 5520 5524 5526 5529 5532 5534 5537 5540 5543 5546 5551
5621 5614 5606 5599 5591 5582 5573 5564 5555 5546 5538 5530 5524 5518 5513 5509 5506 5505 5503 5501 5499 5498 5498 5499 5499 5500 5500 5502 5505 5510 5513 5517 5521 5525 5528 5531 5534 5537 5540 5543 5546 5550 5555
5620 5613 5607 5600 5592 5582 5573 5564 5555 5548 5540 5533 5526 5521 5516 5512 5509 5507 5506 5504 5501 5500 5500 5501 5502 5504 5505 5506 5509 5512 5515 5519 5523 5527 5530 5533 5536 5540 5543 5546 5549 5553 5557
5620 5614 5607 5599 5591 5582 5574 5565 5557 5550 5542 5535 5529 5523 5519 5515 5513 5510 5509 5507 5504 5503 5503 5503 5504 5507 5509 5510 5513 5515 5518 5522 5525 5529 5532 5535 5538 5542 5546 5549 5552 5555 5558
5622 5615 5607 5599 5591 5583 5574 5567 5560 5553 5546 5539 5533 5527 5523 5519 5515 5513 5511 5509 5508 5506 5505 5506 5507 5509 5512 5514 5516 5519 5521 5524 5527 5530 5533 5536 5540 5544 5548 5551 5554 5556 5559
5623 5616 5607 5599 5591 5582 5575 5568 5562 5556 5550 5544 5538 5532 5527 5523 5520 5517 5515 5513 5511 5510 5509 5509 5510 5512 5515 5517 5519 5521 5523 5526 5529 5532 5535 5538 5542 5546 5550 5553 5556 5558 5560
5623 5616 5608 5598 5590 5582 5574 5568 5563 5558 5553 5548 5543 5538 5532 5528 5525 5523 5521 5519 5516 5515 5514 5514 5514 5515 5517 5519 5521 5524 5526 5528 5531 5533 5536 5539 5543 5546 5550 5554 5557 5559 5561
5625 5617 5609 5599 5590 5581 5575 5569 5565 5561 5557 5553 5548 5543 5538 5534 5530 5527 5525 5524 5522 5520 5519 5518 5518 5518 5520 5522 5524 5527 5529 5531 5533 5535 5537 5540 5543 5547 5550 5554 5557 5560 5562